Hourly Data Report for October 10, 2002

SHERBROOKE A
QUEBEC

45°26'00.000" N
71°41'00.000" W
241.40 m
7028124
71610
YSC

Download Data

Hourly Data (October 2002)
Hourly Data Report for October 10, 2002
TIME
LST
Temp Definition
°C
Dew Point Definition
°C
Rel Hum Definition
%
Precip. Amount Definition
mm

Wind Dir Definition
10's deg

Wind Spd Definition
km/h
Visibility Definition
km
Stn Press Definition
kPa
Hmdx Definition


Wind Chill Definition


Weather Definition


00:00 5.8 4.8 93   9 4 15.0 99.57      
01:00 5.8 5.1 95   12 4 15.0 99.60      
02:00 6.0 5.3 95   11 7 15.0 99.61      
03:00 6.0 5.2 95   12 7 15.0 99.61      
04:00 4.3 4.0 98   10 4 15.0 99.63      
05:00 5.7 5.1 96   12 6 15.0 99.65      
06:00 6.3 5.6 95   10 6 15.0 99.68      
07:00 7.3 6.5 95   12 6 24.1 99.72     Mostly Cloudy
08:00 9.6 7.7 88   13 6 24.1 99.74     Mostly Cloudy
09:00 10.4 8.2 86   19 7 24.1 99.77     Mostly Cloudy
10:00 12.5 8.1 75   18 13 24.1 99.75     Mostly Cloudy
11:00 14.0 9.0 72   20 11 24.1 99.74     Mostly Cloudy
12:00 13.6 8.6 72   19 13 24.1 99.73     Mostly Cloudy
13:00 14.2 8.9 70   18 13 24.1 99.69     Mostly Cloudy
14:00 14.8 9.1 69   20 6 24.1 99.68     Mostly Cloudy
15:00 15.6 9.5 67   17 9 24.1 99.66     Mainly Clear
16:00 14.4 9.2 71   18 7 24.1 99.67     Mostly Cloudy
17:00 12.6 9.1 79   16 11 15.0 99.71      
18:00 11.4 8.3 81   16 11 15.0 99.78      
19:00 7.2 6.4 95     0 9.7 99.81      
20:00 7.2 6.7 97   11 6 6.4 99.83      
21:00 5.8 4.7 93   10 6 8.0 99.82      
22:00 5.9 5.3 96     0 3.2 99.82      
23:00 8.2 7.6 96   6 4 6.4 99.81      

Notes on Data Quality.

Legend

  • E = Estimated
  • M = Missing
  • NA = Not Available*
  • [empty] = Indicates an unobserved value
Date modified: